Temperature
18 17 18 17 17 17 17 17 17 17 16 16 15 15 15 14 14 13 13 13 13 13 13 13 13 13 13 13 13 13 14 14 14 14 14 15 15 15 15 15 15 16 16
17 18 18 18 18 17 17 17 17 16 16 15 15 14 14 13 13 13 12 12 12 12 12 13 13 13 13 13 13 13 13 13 13 13 13 13 14 15 15 15 15 15 15
18 18 18 18 18 17 17 17 16 16 15 15 14 14 13 13 12 12 12 12 12 12 12 12 12 12 12 13 13 13 13 13 13 13 12 13 13 14 14 14 15 15 15
19 19 18 18 18 18 17 17 16 16 15 15 14 13 13 12 12 11 11 11 11 11 11 11 11 12 12 12 12 12 12 12 12 13 12 12 12 12 13 14 14 14 14
19 19 19 19 18 18 17 17 16 16 15 14 13 13 12 12 11 11 11 11 11 11 11 11 11 11 11 11 12 12 12 12 12 12 12 12 12 12 12 13 14 14 14
19 19 19 19 18 18 17 17 16 16 15 14 13 12 12 11 11 11 11 11 11 11 10 10 10 10 11 11 11 11 11 11 12 12 12 12 12 12 12 12 13 13 14
19 19 19 19 18 18 18 17 16 15 14 13 13 12 12 11 11 11 10 10 10 10 10 10 10 10 10 10 10 11 11 11 11 11 11 12 12 11 12 12 12 13 13
19 19 19 19 18 18 17 16 16 15 14 13 12 12 11 11 11 11 10 10 10 10 10 9 9 9 9 9 9 10 10 10 10 11 11 11 11 11 11 11 12 12 13
20 20 19 19 18 18 17 16 15 14 13 13 12 12 11 11 11 11 10 10 10 10 9 9 9 9 9 9 9 9 9 9 10 10 10 11 11 11 11 11 11 11 12
20 20 19 19 18 17 16 15 15 14 13 13 12 12 11 11 11 11 10 10 10 10 9 9 9 9 9 9 8 8 8 9 9 9 10 10 10 11 11 11 11 11 11
20 20 19 18 18 17 16 15 14 14 13 12 12 12 11 11 11 10 10 10 10 9 9 9 9 9 9 9 8 8 8 8 8 9 9 9 10 10 10 10 11 11 11
20 19 19 18 17 17 16 15 14 13 13 12 12 12 11 11 11 10 10 10 9 9 9 9 9 9 9 8 8 8 8 8 8 8 8 9 9 9 10 10 10 11 11
20 19 18 18 17 16 16 15 14 13 13 12 12 11 11 11 10 10 10 9 9 9 9 9 8 8 8 8 8 8 8 8 8 8 8 8 8 9 9 9 10 10 10
19 19 18 18 17 16 15 14 14 13 12 12 12 11 11 10 10 10 9 9 9 9 9 8 8 8 8 8 8 8 8 8 8 8 8 8 8 8 8 9 9 10 10
19 19 18 18 17 16 15 14 13 13 12 12 11 11 10 10 10 9 9 9 9 8 8 8 8 8 8 8 8 8 8 8 8 8 8 8 8 8 8 8 9 9 9
20 19 18 17 17 16 15 14 13 13 12 12 11 11 10 10 9 9 9 9 8 8 8 8 8 8 8 8 8 8 8 8 8 8 8 8 7 7 7 8 8 8 9
20 19 18 17 17 16 15 14 13 12 12 11 11 10 10 9 9 9 9 8 8 8 8 8 8 8 8 8 8 8 7 7 8 8 8 8 8 7 7 7 8 8 8
20 19 18 17 16 15 15 14 13 12 12 11 11 10 9 9 9 9 8 8 8 8 8 8 8 8 8 8 8 8 7 7 7 7 7 7 7 7 7 7 7 7 8
20 19 18 17 16 15 15 14 13 12 12 11 10 10 9 9 9 8 8 8 8 7 7 8 8 8 8 8 8 7 7 7 7 7 7 7 7 7 7 6 6 7 8
20 19 18 17 16 15 14 14 13 12 12 11 10 10 9 9 8 8 8 8 7 7 7 8 8 8 8 8 8 7 7 7 7 7 7 7 7 7 6 6 6 6 7
20 19 18 17 17 15 14 14 13 12 12 11 10 10 9 8 8 8 8 7 7 7 7 8 8 8 8 8 8 7 7 7 6 6 7 7 6 6 6 6 6 6 7
20 19 18 18 16 15 14 14 13 12 12 11 10 10 9 8 8 8 7 7 7 7 7 8 8 8 8 8 7 7 7 6 6 6 6 6 6 6 6 6 6 6 6
20 19 18 17 16 15 15 14 13 12 12 11 10 10 9 9 8 7 7 7 7 7 8 8 8 8 8 8 7 7 7 6 6 6 6 6 6 6 6 6 6 6 6
20 19 18 17 17 16 15 14 13 12 12 11 10 10 9 9 8 8 7 7 7 8 8 8 8 8 8 8 7 7 7 6 6 6 6 6 6 6 6 6 6 6 6
21 19 18 18 17 16 15 14 13 12 12 11 10 10 9 9 9 8 8 8 8 8 8 8 8 8 8 8 7 7 7 6 6 6 6 6 6 6 5 5 6 6 6
20 19 18 18 17 16 15 14 13 12 12 11 11 10 9 9 8 8 9 9 8 8 8 8 8 8 8 8 7 7 6 6 6 6 6 6 6 6 6 5 6 6 6
Wind_Speed
6 7 7 7 6 5 5 4 3 2 1 1 1 2 2 3 3 4 7 8 9 9 5 3 4 3 2 4 4 3 4 3 3 3 5 6 8 9 9 9 9 11 13
5 7 7 7 7 7 6 5 5 3 2 1 1 1 1 2 3 3 5 7 8 8 6 4 4 3 2 3 3 2 2 2 2 2 3 4 4 3 6 7 8 9 8
8 8 8 8 7 7 7 6 6 5 3 2 1 1 2 3 3 3 4 5 8 7 6 5 4 4 2 2 3 2 2 3 3 3 3 3 3 4 3 5 6 7 7
7 7 7 7 7 7 6 7 6 5 4 2 2 2 1 2 3 3 4 5 6 6 6 5 4 3 2 2 3 2 2 2 3 3 3 5 4 3 4 3 3 5 6
8 8 8 7 6 6 6 6 5 4 3 3 3 3 3 3 3 3 5 5 4 5 5 4 4 3 3 3 3 3 2 2 2 2 2 3 3 5 4 5 4 3 4
7 7 5 5 5 5 5 5 5 4 4 4 4 4 5 5 5 5 4 4 4 4 5 4 3 3 3 3 3 3 3 2 3 3 3 3 3 3 4 5 5 5 4
5 5 5 6 6 6 5 5 5 5 5 5 5 5 6 6 6 6 5 5 4 4 5 4 4 4 4 4 4 3 4 3 3 3 3 4 4 4 4 5 5 4 4
5 6 7 7 7 7 6 5 6 5 5 6 6 6 6 5 5 6 5 5 5 6 6 5 5 5 5 5 4 3 4 3 4 5 4 4 4 4 4 4 4 5 3
6 7 7 7 6 6 6 6 6 6 7 7 6 6 6 6 6 6 5 5 6 6 6 6 6 6 5 5 4 4 5 4 4 5 5 4 4 4 4 4 4 4 4
6 6 6 6 5 5 4 5 6 7 7 6 6 5 6 6 6 5 6 7 6 6 7 7 7 7 6 6 5 5 5 5 5 4 5 5 4 4 4 4 4 4 4
8 7 5 4 3 3 4 5 6 6 7 7 6 6 7 6 6 6 7 7 7 7 7 8 8 8 8 7 5 6 6 6 7 6 6 6 5 4 4 4 4 4 4
6 5 4 3 4 5 5 6 7 7 8 7 6 7 7 6 6 7 7 7 7 7 8 8 8 9 9 8 7 8 7 7 8 8 7 8 6 5 4 4 5 5 5
6 4 4 5 6 6 6 7 7 8 8 6 6 7 7 7 7 8 7 7 7 8 8 8 9 10 10 9 9 9 9 9 9 9 9 9 7 7 5 5 5 5 5
6 6 6 7 7 7 7 7 8 7 7 6 6 7 8 7 7 7 7 7 8 8 9 9 10 10 10 10 10 10 10 10 9 9 9 9 9 9 8 6 7 6 6
8 9 8 8 8 7 7 7 8 8 6 6 7 8 7 6 6 7 7 8 8 9 9 10 10 10 9 9 10 10 10 10 10 9 9 10 11 12 9 7 7 6 5
10 10 10 9 9 9 8 7 8 7 5 6 7 7 6 6 6 7 7 8 9 9 9 10 10 11 9 11 14 13 11 11 11 11 10 10 12 13 14 14 12 10 8
11 11 11 10 10 9 8 8 8 6 5 6 7 6 6 6 7 8 8 9 9 9 10 10 10 11 12 15 17 17 12 12 12 12 11 10 10 11 10 12 13 13 14
11 11 11 10 8 7 6 6 6 6 6 6 7 6 6 7 7 8 9 10 9 9 9 10 11 11 13 15 15 16 12 11 12 12 12 12 12 11 11 11 11 11 11
12 11 11 9 7 7 7 5 6 6 6 7 7 7 6 7 8 9 10 9 9 9 10 9 11 11 13 15 15 13 9 9 12 12 12 12 13 14 14 12 12 12 11
10 9 8 6 7 7 6 5 7 6 8 8 7 6 6 7 9 10 10 9 9 10 10 10 11 11 13 14 15 12 7 9 10 10 10 14 14 14 14 13 12 13 11
11 9 8 8 8 7 6 7 7 8 8 7 6 6 7 8 9 9 9 9 9 9 10 11 11 11 12 13 14 12 7 8 8 8 8 9 12 15 15 14 12 13 11
11 10 9 9 7 6 7 8 9 8 6 5 6 7 7 8 8 8 9 9 9 9 10 9 10 9 8 10 11 12 10 9 8 9 8 9 12 14 14 12 12 14 12
11 9 10 9 7 7 8 9 9 6 5 5 7 7 8 8 8 8 9 9 8 7 8 8 9 9 7 7 11 12 11 9 8 8 11 12 12 11 10 12 14 13 10
10 9 9 9 9 9 9 10 8 6 6 6 7 7 8 8 8 7 7 7 8 8 8 8 9 9 8 7 6 5 5 6 6 6 7 9 9 7 7 7 8 9 9
9 9 11 11 11 8 9 9 7 6 6 7 7 7 7 8 8 8 7 8 9 9 9 9 9 9 10 9 8 6 5 4 4 4 3 3 3 3 4 5 6 7 8
8 9 10 10 10 8 8 8 7 7 7 6 7 6 6 7 7 8 9 10 12 14 16 16 14 11 13 14 12 11 10 9 7 4 4 5 4 5 5 5 6 7 8
Wind_Direction
190 188 194 196 196 203 206 201 186 185 125 65 47 14 339 333 340 348 358 1 4 5 7 351 328 319 289 282 285 281 288 282 275 287 290 279 262 250 243 237 234 233 232
203 205 205 203 205 208 208 206 204 201 195 170 165 210 278 294 293 315 339 353 357 358 3 355 335 321 301 301 296 267 280 282 273 271 298 306 308 284 251 237 233 235 233
213 217 215 213 210 213 209 206 204 205 204 174 108 32 359 340 338 334 331 335 341 345 350 352 347 344 330 305 298 274 253 278 283 239 255 287 298 317 291 243 238 238 236
222 222 223 223 219 218 204 199 196 200 203 179 185 219 251 278 272 284 294 309 324 332 339 346 352 356 352 328 310 310 252 259 285 288 251 249 263 286 309 299 254 242 241
227 226 224 223 216 200 190 187 184 200 208 207 214 227 246 249 273 284 292 304 313 321 330 334 346 347 340 331 328 326 296 251 259 271 282 278 267 249 263 288 301 300 262
233 228 217 197 191 176 168 167 178 211 225 231 233 229 247 260 274 284 291 300 306 307 314 319 327 323 320 317 312 306 301 278 265 264 260 261 270 278 267 274 296 300 289
231 218 195 183 181 173 170 172 186 223 238 242 246 240 243 246 250 264 271 282 291 292 296 304 301 301 301 303 304 301 298 287 278 271 265 261 259 267 273 276 284 288 289
210 203 196 188 186 183 180 184 200 228 242 245 250 248 244 237 245 253 255 263 266 274 280 283 281 283 289 298 304 298 293 288 284 281 273 269 269 265 264 266 278 290 286
201 200 196 193 193 194 197 200 209 232 246 247 250 253 247 239 249 258 257 260 263 273 276 279 281 280 279 279 284 281 287 292 283 281 279 271 269 271 263 261 261 267 281
205 206 206 207 207 211 219 221 223 233 246 251 250 252 250 246 250 260 267 268 271 272 282 284 283 281 277 272 266 268 274 278 279 274 278 276 271 273 269 261 259 252 256
210 215 221 224 226 237 239 240 241 247 258 258 257 260 261 257 259 262 267 271 276 279 280 282 285 285 281 274 263 262 265 264 271 275 274 277 276 271 268 263 256 253 251
217 224 229 235 242 248 251 250 252 253 257 260 262 262 264 264 265 267 271 274 277 279 279 281 284 283 281 274 267 270 270 261 264 267 267 271 276 270 264 258 256 253 246
223 229 235 239 244 250 256 257 257 257 262 263 264 267 266 262 263 267 274 277 277 280 281 280 280 281 281 279 274 269 269 263 259 258 257 261 264 267 262 254 255 255 253
225 229 240 245 248 251 255 258 264 263 264 263 262 264 264 261 262 268 272 274 275 277 278 278 277 278 278 278 276 273 271 268 262 255 250 251 250 254 257 254 250 250 251
233 232 235 242 246 253 258 259 265 270 265 263 263 263 266 266 265 268 271 273 274 277 276 280 280 277 276 272 267 266 269 267 266 261 250 246 247 248 245 243 241 237 240
235 236 236 238 241 244 250 257 263 267 263 260 264 269 271 270 267 269 273 276 276 277 278 278 278 278 275 271 270 272 271 269 267 268 261 252 255 256 254 252 245 231 230
231 231 231 230 233 235 237 245 254 265 266 263 268 271 271 271 272 276 279 279 279 279 280 279 277 276 273 270 272 274 272 266 265 264 263 262 255 245 243 248 255 247 236
228 230 230 230 231 230 233 242 253 259 262 267 269 270 272 275 278 280 280 280 279 279 280 281 280 278 277 272 270 274 274 268 264 260 258 257 257 250 240 243 247 247 244
220 223 221 219 222 227 230 235 252 258 263 265 264 267 270 277 282 283 282 281 280 280 279 279 279 278 279 276 272 272 272 266 266 263 259 255 255 247 235 238 243 246 247
220 220 215 207 218 227 213 221 245 254 258 258 258 262 266 272 278 280 281 280 278 279 283 283 279 275 277 277 274 271 264 264 266 266 261 255 252 247 235 234 235 240 241
216 209 200 205 218 213 194 223 241 247 249 251 257 263 267 272 275 277 277 280 282 284 284 284 284 278 273 276 275 271 253 250 261 265 265 259 250 247 240 232 232 233 229
212 199 198 214 217 199 197 227 243 247 247 249 259 267 272 277 282 279 283 283 281 285 287 287 289 284 275 270 275 273 260 247 251 259 262 261 255 251 246 235 228 224 220
209 197 197 211 218 207 201 224 242 241 240 249 262 272 280 280 279 279 283 289 284 281 285 286 288 290 286 274 266 270 269 264 251 255 257 260 261 258 251 237 225 217 216
205 192 191 208 223 217 213 224 233 224 227 248 264 276 285 289 289 282 277 280 282 283 285 285 286 288 289 284 275 267 265 270 266 265 268 265 261 250 242 237 224 216 212
196 187 196 211 223 219 223 227 222 212 228 248 264 277 280 284 291 289 278 276 271 262 267 278 278 282 285 278 260 256 259 256 262 275 266 255 250 245 238 230 221 210 208
192 193 202 214 223 217 227 228 215 207 222 248 263 271 279 285 287 295 301 278 265 270 262 256 257 264 259 268 271 262 259 261 258 250 252 259 252 247 245 238 225 214 210
Height
1531 1532 1534 1535 1537 1538 1538 1539 1539 1539 1538 1537 1536 1534 1531 1529 1526 1524 1522 1520 1519 1518 1518 1517 1517 1516 1516 1515 1514 1512 1511 1510 1508 1506 1504 1502 1501 1499 1498 1499 1501 1503 1506
1530 1531 1533 1534 1535 1536 1537 1538 1538 1537 1537 1535 1534 1532 1529 1526 1524 1521 1519 1517 1516 1515 1514 1513 1513 1512 1512 1511 1510 1509 1508 1507 1505 1504 1501 1498 1497 1494 1493 1493 1495 1496 1498
1528 1530 1531 1532 1534 1535 1536 1536 1536 1535 1535 1533 1531 1529 1527 1524 1522 1519 1517 1515 1513 1512 1511 1510 1509 1509 1508 1508 1507 1506 1505 1504 1503 1501 1501 1498 1495 1492 1491 1490 1490 1491 1492
1527 1529 1530 1531 1532 1533 1534 1534 1534 1533 1532 1531 1529 1527 1524 1522 1519 1517 1515 1513 1511 1510 1508 1507 1506 1505 1505 1504 1504 1503 1502 1501 1500 1499 1498 1497 1495 1493 1489 1487 1487 1487 1488
1525 1526 1527 1529 1530 1531 1531 1531 1531 1530 1529 1528 1526 1524 1521 1519 1517 1515 1513 1511 1509 1507 1505 1503 1502 1502 1501 1501 1500 1500 1499 1498 1497 1496 1495 1493 1492 1491 1489 1485 1484 1484 1484
1522 1523 1525 1526 1527 1528 1528 1528 1528 1528 1527 1525 1523 1521 1519 1516 1514 1512 1510 1508 1506 1504 1502 1500 1499 1498 1497 1497 1496 1496 1495 1495 1494 1493 1492 1491 1489 1488 1487 1484 1481 1480 1481
1519 1520 1522 1523 1524 1525 1525 1526 1525 1525 1523 1522 1520 1518 1516 1514 1511 1509 1507 1504 1502 1500 1498 1497 1495 1494 1493 1492 1491 1491 1491 1490 1490 1489 1488 1487 1486 1485 1484 1482 1480 1479 1478
1517 1518 1519 1520 1522 1523 1523 1523 1522 1521 1520 1518 1517 1515 1513 1511 1509 1506 1504 1501 1499 1497 1495 1494 1492 1490 1489 1487 1486 1486 1485 1485 1484 1484 1484 1483 1483 1482 1481 1480 1479 1477 1476
1514 1516 1517 1518 1519 1520 1520 1520 1519 1518 1517 1515 1513 1511 1510 1508 1505 1503 1501 1499 1496 1494 1492 1490 1489 1487 1485 1484 1482 1481 1480 1479 1479 1479 1479 1479 1478 1478 1478 1477 1476 1476 1474
1513 1514 1515 1517 1517 1518 1517 1517 1516 1515 1513 1512 1510 1508 1506 1504 1502 1500 1498 1495 1493 1491 1488 1487 1485 1483 1481 1480 1478 1477 1476 1475 1474 1473 1473 1473 1473 1473 1473 1473 1473 1472 1472
1511 1513 1514 1515 1515 1515 1515 1514 1513 1511 1510 1508 1507 1505 1503 1501 1499 1496 1494 1491 1489 1487 1484 1482 1480 1478 1477 1475 1474 1472 1471 1470 1469 1468 1468 1467 1468 1468 1468 1469 1469 1468 1468
1510 1511 1512 1513 1513 1512 1512 1511 1509 1508 1506 1505 1503 1501 1499 1497 1494 1492 1489 1487 1484 1482 1479 1477 1475 1473 1471 1470 1468 1467 1465 1464 1463 1463 1462 1462 1462 1462 1463 1463 1464 1464 1464
1508 1509 1510 1510 1510 1510 1508 1507 1505 1504 1502 1500 1498 1496 1494 1492 1490 1487 1485 1482 1479 1476 1474 1471 1469 1466 1465 1463 1462 1461 1459 1458 1457 1457 1456 1456 1456 1456 1457 1457 1458 1459 1460
1506 1507 1507 1508 1507 1506 1505 1503 1501 1500 1498 1496 1494 1492 1489 1487 1484 1482 1479 1476 1473 1470 1467 1465 1462 1460 1458 1457 1456 1454 1453 1452 1451 1451 1450 1450 1450 1450 1451 1451 1452 1454 1455
1503 1504 1504 1504 1503 1502 1501 1499 1497 1495 1493 1491 1489 1487 1484 1482 1479 1476 1473 1470 1467 1464 1461 1458 1455 1453 1452 1450 1449 1448 1447 1446 1445 1444 1444 1444 1444 1444 1445 1446 1447 1448 1449
1499 1500 1500 1500 1499 1498 1496 1495 1493 1491 1488 1486 1484 1481 1479 1476 1473 1470 1467 1464 1461 1457 1454 1451 1449 1447 1446 1445 1444 1442 1440 1439 1438 1437 1437 1437 1437 1437 1438 1439 1440 1442 1443
1496 1496 1496 1496 1495 1494 1492 1490 1488 1486 1484 1481 1479 1476 1473 1470 1468 1464 1461 1458 1454 1451 1448 1446 1443 1441 1440 1439 1438 1436 1434 1433 1431 1431 1430 1430 1430 1430 1431 1432 1434 1435 1437
1491 1491 1491 1491 1490 1489 1488 1486 1484 1482 1479 1476 1474 1471 1468 1465 1462 1459 1455 1452 1448 1445 1442 1440 1438 1436 1434 1433 1432 1430 1428 1426 1425 1424 1423 1423 1423 1423 1424 1424 1426 1427 1429
1486 1486 1486 1486 1486 1485 1483 1482 1480 1477 1474 1472 1469 1466 1463 1459 1456 1452 1449 1446 1443 1440 1437 1435 1432 1430 1429 1428 1426 1424 1421 1419 1418 1417 1416 1415 1415 1415 1416 1417 1417 1419 1422
1480 1481 1482 1482 1481 1480 1479 1477 1475 1472 1470 1467 1464 1460 1457 1454 1450 1447 1444 1441 1438 1434 1432 1429 1427 1425 1423 1421 1420 1418 1415 1413 1411 1410 1409 1408 1407 1407 1408 1409 1409 1411 1414
1475 1476 1477 1477 1477 1476 1474 1472 1470 1467 1465 1462 1458 1455 1452 1448 1445 1442 1439 1436 1433 1430 1427 1424 1422 1420 1417 1415 1413 1411 1409 1406 1405 1403 1401 1401 1400 1400 1400 1401 1402 1403 1407
1469 1471 1471 1471 1472 1471 1470 1468 1465 1463 1460 1457 1453 1450 1446 1443 1440 1437 1434 1431 1428 1425 1422 1419 1416 1414 1412 1410 1407 1405 1403 1401 1398 1397 1395 1394 1393 1393 1393 1393 1394 1397 1401
1464 1465 1466 1467 1467 1466 1464 1463 1461 1458 1456 1452 1449 1445 1442 1438 1435 1432 1429 1426 1424 1420 1417 1414 1411 1409 1406 1404 1401 1399 1397 1395 1393 1391 1390 1389 1388 1387 1386 1387 1388 1391 1393
1458 1459 1461 1461 1461 1460 1459 1457 1456 1453 1451 1448 1444 1441 1437 1434 1431 1428 1425 1422 1419 1416 1412 1409 1406 1403 1401 1399 1396 1394 1392 1390 1388 1387 1385 1384 1383 1382 1381 1382 1383 1384 1387
1452 1453 1454 1455 1455 1455 1454 1453 1451 1448 1446 1443 1440 1436 1432 1429 1426 1423 1420 1417 1414 1412 1408 1405 1402 1399 1395 1394 1391 1389 1387 1385 1384 1382 1381 1380 1379 1378 1378 1378 1379 1380 1382
1446 1448 1449 1451 1451 1450 1449 1448 1446 1444 1441 1438 1435 1431 1428 1424 1421 1418 1415 1413 1410 1407 1404 1401 1397 1394 1391 1388 1386 1384 1382 1381 1380 1379 1377 1377 1376 1375 1375 1375 1375 1376 1378